TimeCST,TemperatureF,Dew PointF,Humidity,Sea Level PressureIn,VisibilityMPH,Wind Direction,Wind SpeedMPH,Gust SpeedMPH,PrecipitationIn,Events,Conditions,WindDirDegrees,DateUTC
12:53 AM,57.9,30.0,35,29.80,10.0,Calm,Calm,-,N/A,,Clear,0,2014-01-27 06:53:00
1:53 AM,53.1,34.0,48,29.80,10.0,Calm,Calm,-,N/A,,Clear,0,2014-01-27 07:53:00
2:53 AM,52.0,33.1,49,29.80,10.0,North,5.8,-,N/A,,Clear,10,2014-01-27 08:53:00
3:53 AM,48.0,32.0,54,29.81,10.0,Calm,Calm,-,N/A,,Clear,0,2014-01-27 09:53:00
4:53 AM,50.0,30.9,48,29.82,10.0,North,4.6,-,N/A,,Clear,360,2014-01-27 10:53:00
5:53 AM,46.9,34.0,61,29.84,10.0,NW,3.5,-,N/A,,Clear,320,2014-01-27 11:53:00
6:53 AM,48.0,30.9,52,29.87,10.0,NNW,6.9,-,N/A,,Clear,330,2014-01-27 12:53:00
7:53 AM,51.1,27.0,39,29.92,10.0,North,5.8,-,N/A,,Clear,360,2014-01-27 13:53:00
8:53 AM,57.0,26.1,30,29.98,7.0,NNE,13.8,28.8,N/A,,Clear,20,2014-01-27 14:53:00
9:25 AM,57.0,28.0,33,30.04,4.0,NNE,18.4,31.1,N/A,,Haze,20,2014-01-27 15:25:00
9:53 AM,57.0,28.0,33,30.06,10.0,North,18.4,25.3,N/A,,Clear,360,2014-01-27 15:53:00
10:53 AM,55.0,28.0,35,30.14,10.0,NW,19.6,28.8,N/A,,Clear,320,2014-01-27 16:53:00
11:53 AM,48.9,21.0,33,30.17,10.0,NNW,21.9,29.9,N/A,,Clear,330,2014-01-27 17:53:00
12:53 PM,46.9,18.0,32,30.17,10.0,NNW,19.6,34.5,N/A,,Clear,330,2014-01-27 18:53:00
1:53 PM,46.9,15.1,28,30.15,10.0,NNW,18.4,29.9,N/A,,Clear,330,2014-01-27 19:53:00
2:53 PM,46.9,12.9,25,30.14,10.0,NNW,17.3,25.3,N/A,,Clear,330,2014-01-27 20:53:00
3:53 PM,46.9,10.9,23,30.11,10.0,NW,16.1,21.9,N/A,,Clear,320,2014-01-27 21:53:00
4:53 PM,46.9,9.0,21,30.12,10.0,NNW,13.8,20.7,N/A,,Clear,340,2014-01-27 22:53:00
5:53 PM,46.0,9.0,22,30.14,10.0,North,13.8,-,N/A,,Clear,350,2014-01-27 23:53:00
6:53 PM,45.0,9.0,23,30.16,10.0,NNW,10.4,-,N/A,,Clear,340,2014-01-28 00:53:00
7:53 PM,45.0,8.1,22,30.17,10.0,North,12.7,-,N/A,,Mostly Cloudy,360,2014-01-28 01:53:00
8:53 PM,44.1,9.0,24,30.18,10.0,North,11.5,-,N/A,,Scattered Clouds,350,2014-01-28 02:53:00
9:53 PM,43.0,12.9,30,30.19,10.0,North,9.2,-,N/A,,Partly Cloudy,360,2014-01-28 03:53:00
10:53 PM,42.1,15.1,34,30.20,10.0,North,8.1,-,N/A,,Clear,360,2014-01-28 04:53:00
11:53 PM,39.9,15.1,36,30.20,10.0,North,5.8,-,N/A,,Clear,10,2014-01-28 05:53:00